QPF
0.00 0.00 0.00 0.00 0.00 0.00 0.00 0.00 0.00 0.00 0.00 0.01 0.01 0.02 0.03 0.06 0.09 0.09 0.08 0.09 0.09 0.07 0.07 0.10 0.10 0.09 0.08 0.09 0.09 0.06 0.06 0.06 0.05 0.06 0.05 0.05 0.06 0.06 0.08 0.11 0.13 0.15 0.16 0.15
0.00 0.00 0.00 0.00 0.00 0.00 0.00 0.00 0.00 0.00 0.00 0.00 0.01 0.01 0.03 0.04 0.05 0.07 0.11 0.12 0.13 0.12 0.11 0.10 0.13 0.12 0.09 0.09 0.09 0.08 0.06 0.06 0.06 0.05 0.04 0.03 0.03 0.03 0.04 0.06 0.08 0.10 0.10 0.10
0.00 0.00 0.00 0.00 0.00 0.00 0.00 0.00 0.00 0.00 0.00 0.00 0.01 0.01 0.02 0.03 0.05 0.07 0.10 0.12 0.14 0.13 0.12 0.11 0.13 0.13 0.12 0.09 0.09 0.08 0.06 0.05 0.05 0.04 0.03 0.02 0.01 0.01 0.02 0.02 0.03 0.05 0.04 0.05
0.00 0.00 0.00 0.00 0.00 0.00 0.00 0.00 0.00 0.00 0.00 0.00 0.00 0.01 0.02 0.03 0.04 0.05 0.06 0.09 0.10 0.11 0.10 0.10 0.12 0.11 0.12 0.11 0.10 0.08 0.06 0.04 0.04 0.04 0.04 0.04 0.02 0.03 0.01 0.01 0.02 0.02 0.02 0.03
0.00 0.00 0.00 0.00 0.00 0.00 0.00 0.00 0.00 0.00 0.00 0.00 0.00 0.00 0.01 0.02 0.05 0.05 0.08 0.13 0.09 0.11 0.11 0.12 0.13 0.13 0.13 0.13 0.13 0.10 0.07 0.05 0.04 0.03 0.03 0.03 0.02 0.02 0.02 0.02 0.01 0.02 0.02 0.02
0.00 0.00 0.00 0.00 0.00 0.00 0.00 0.00 0.00 0.00 0.00 0.00 0.00 0.00 0.00 0.01 0.02 0.04 0.06 0.10 0.09 0.11 0.12 0.13 0.16 0.17 0.15 0.15 0.11 0.09 0.06 0.05 0.03 0.02 0.03 0.03 0.02 0.02 0.03 0.02 0.01 0.01 0.02 0.03
0.00 0.00 0.00 0.00 0.00 0.00 0.00 0.00 0.01 0.01 0.00 0.00 0.00 0.00 0.00 0.00 0.00 0.01 0.02 0.07 0.10 0.09 0.11 0.14 0.15 0.15 0.14 0.12 0.11 0.07 0.05 0.03 0.02 0.02 0.03 0.03 0.03 0.03 0.02 0.02 0.02 0.01 0.02 0.03
0.00 0.00 0.00 0.00 0.00 0.00 0.00 0.00 0.00 0.00 0.00 0.00 0.00 0.00 0.00 0.00 0.00 0.01 0.02 0.06 0.12 0.10 0.09 0.14 0.16 0.16 0.15 0.15 0.11 0.08 0.06 0.04 0.03 0.02 0.02 0.01 0.01 0.02 0.02 0.01 0.01 0.02 0.02 0.03
0.00 0.00 0.00 0.00 0.00 0.00 0.00 0.00 0.00 0.00 0.00 0.00 0.00 0.00 0.00 0.00 0.01 0.02 0.02 0.04 0.10 0.11 0.11 0.15 0.18 0.18 0.14 0.13 0.12 0.09 0.06 0.04 0.03 0.02 0.02 0.01 0.01 0.01 0.01 0.01 0.01 0.01 0.01 0.01
0.00 0.00 0.00 0.00 0.00 0.00 0.00 0.00 0.01 0.01 0.00 0.00 0.00 0.00 0.01 0.01 0.01 0.02 0.03 0.04 0.06 0.08 0.11 0.14 0.15 0.16 0.14 0.10 0.08 0.07 0.05 0.03 0.02 0.02 0.01 0.01 0.02 0.02 0.02 0.01 0.01 0.01 0.00 0.01
0.00 0.00 0.00 0.00 0.01 0.01 0.00 0.00 0.01 0.00 0.00 0.00 0.00 0.01 0.02 0.02 0.03 0.03 0.04 0.04 0.03 0.04 0.07 0.09 0.11 0.12 0.10 0.09 0.08 0.08 0.07 0.05 0.04 0.03 0.02 0.02 0.02 0.02 0.02 0.01 0.01 0.01 0.00 0.00
0.01 0.00 0.00 0.00 0.01 0.01 0.01 0.01 0.01 0.00 0.00 0.00 0.00 0.01 0.03 0.03 0.06 0.04 0.05 0.04 0.04 0.04 0.05 0.07 0.09 0.09 0.07 0.06 0.06 0.06 0.06 0.05 0.05 0.04 0.03 0.03 0.02 0.02 0.01 0.01 0.01 0.00 0.00 0.00
0.00 0.01 0.01 0.01 0.01 0.01 0.00 0.00 0.01 0.00 0.00 0.00 0.00 0.01 0.02 0.02 0.04 0.03 0.04 0.06 0.05 0.05 0.05 0.06 0.05 0.05 0.05 0.05 0.06 0.06 0.06 0.05 0.05 0.05 0.05 0.04 0.03 0.03 0.02 0.02 0.01 0.00 0.00 0.00
0.00 0.01 0.01 0.00 0.01 0.01 0.00 0.00 0.00 0.00 0.00 0.00 0.01 0.02 0.01 0.02 0.03 0.02 0.05 0.08 0.04 0.04 0.04 0.04 0.04 0.04 0.05 0.06 0.06 0.06 0.07 0.08 0.07 0.05 0.03 0.03 0.03 0.03 0.03 0.02 0.01 0.01 0.00 0.00
0.01 0.01 0.01 0.01 0.01 0.01 0.00 0.00 0.00 0.00 0.00 0.00 0.01 0.01 0.01 0.01 0.01 0.02 0.05 0.08 0.05 0.05 0.05 0.04 0.03 0.04 0.04 0.04 0.04 0.04 0.05 0.07 0.09 0.09 0.06 0.04 0.03 0.02 0.02 0.02 0.01 0.01 0.01 0.00
0.01 0.02 0.01 0.01 0.01 0.01 0.00 0.01 0.01 0.00 0.00 0.00 0.00 0.01 0.02 0.01 0.01 0.02 0.04 0.05 0.05 0.06 0.06 0.04 0.04 0.04 0.04 0.03 0.02 0.02 0.03 0.05 0.08 0.10 0.09 0.08 0.05 0.04 0.03 0.02 0.01 0.01 0.01 0.00
0.01 0.01 0.01 0.01 0.01 0.01 0.01 0.01 0.01 0.00 0.00 0.00 0.00 0.01 0.01 0.01 0.01 0.01 0.02 0.03 0.03 0.03 0.04 0.04 0.04 0.04 0.04 0.03 0.02 0.02 0.03 0.03 0.04 0.05 0.05 0.05 0.04 0.03 0.03 0.03 0.02 0.01 0.01 0.01
0.01 0.01 0.01 0.01 0.01 0.01 0.01 0.01 0.01 0.00 0.00 0.00 0.00 0.00 0.01 0.01 0.01 0.01 0.01 0.01 0.02 0.02 0.03 0.04 0.04 0.04 0.03 0.02 0.02 0.03 0.04 0.04 0.04 0.05 0.05 0.05 0.05 0.04 0.03 0.02 0.02 0.01 0.01 0.01
0.01 0.01 0.00 0.00 0.00 0.01 0.01 0.01 0.01 0.01 0.00 0.00 0.00 0.01 0.01 0.01 0.01 0.01 0.01 0.01 0.02 0.03 0.04 0.04 0.04 0.03 0.02 0.02 0.02 0.02 0.03 0.03 0.04 0.05 0.04 0.04 0.04 0.04 0.04 0.03 0.02 0.01 0.01 0.01
0.01 0.01 0.01 0.00 0.00 0.01 0.01 0.01 0.00 0.00 0.00 0.00 0.01 0.00 0.01 0.01 0.00 0.00 0.00 0.01 0.01 0.02 0.03 0.03 0.03 0.03 0.02 0.01 0.01 0.01 0.01 0.02 0.03 0.03 0.03 0.02 0.02 0.02 0.02 0.02 0.01 0.01 0.00 0.01
0.01 0.01 0.00 0.00 0.00 0.00 0.00 0.00 0.00 0.01 0.00 0.00 0.00 0.00 0.00 0.00 0.00 0.00 0.01 0.01 0.01 0.01 0.02 0.02 0.02 0.03 0.03 0.02 0.02 0.02 0.02 0.03 0.03 0.03 0.02 0.02 0.02 0.02 0.02 0.01 0.01 0.01 0.01 0.01
0.01 0.00 0.00 0.00 0.00 0.00 0.00 0.00 0.00 0.00 0.00 0.00 0.00 0.01 0.01 0.00 0.00 0.00 0.00 0.01 0.01 0.01 0.01 0.02 0.02 0.02 0.02 0.03 0.04 0.04 0.04 0.04 0.04 0.03 0.03 0.03 0.03 0.04 0.03 0.02 0.02 0.01 0.01 0.01
0.01 0.00 0.00 0.00 0.00 0.00 0.00 0.00 0.00 0.00 0.01 0.01 0.01 0.01 0.01 0.01 0.00 0.00 0.00 0.00 0.01 0.00 0.00 0.01 0.01 0.01 0.01 0.01 0.03 0.05 0.05 0.05 0.04 0.03 0.03 0.02 0.03 0.03 0.02 0.01 0.01 0.01 0.00 0.01
0.00 0.00 0.00 0.00 0.00 0.00 0.00 0.00 0.00 0.00 0.00 0.00 0.01 0.00 0.00 0.00 0.00 0.00 0.00 0.00 0.00 0.00 0.00 0.00 0.00 0.00 0.01 0.01 0.02 0.03 0.03 0.03 0.04 0.04 0.04 0.04 0.03 0.03 0.02 0.01 0.01 0.01 0.01 0.00
0.00 0.00 0.00 0.00 0.00 0.00 0.00 0.00 0.00 0.00 0.00 0.00 0.00 0.00 0.00 0.00 0.00 0.00 0.00 0.00 0.00 0.00 0.00 0.00 0.00 0.00 0.00 0.01 0.02 0.01 0.02 0.02 0.03 0.03 0.03 0.02 0.02 0.02 0.03 0.02 0.01 0.01 0.00 0.00
0.00 0.00 0.00 0.00 0.00 0.00 0.00 0.00 0.00 0.00 0.00 0.00 0.00 0.00 0.00 0.00 0.00 0.00 0.00 0.00 0.00 0.00 0.00 0.00 0.00 0.00 0.00 0.01 0.01 0.01 0.01 0.02 0.03 0.02 0.01 0.01 0.01 0.01 0.01 0.01 0.01 0.00 0.00 0.00
MSLP
1013.46 1014.00 1014.37 1014.57 1014.65 1014.65 1014.66 1014.70 1014.81 1014.98 1015.20 1015.42 1015.60 1015.72 1015.76 1015.71 1015.59 1015.42 1015.25 1015.08 1014.95 1014.86 1014.81 1014.80 1014.82 1014.87 1014.95 1015.07 1015.22 1015.41 1015.64 1015.88 1016.12 1016.36 1016.55 1016.71 1016.80 1016.84 1016.83 1016.79 1016.74 1016.69 1016.67 1016.68
1013.59 1014.00 1014.25 1014.35 1014.37 1014.37 1014.42 1014.57 1014.81 1015.14 1015.50 1015.84 1016.12 1016.28 1016.30 1016.20 1016.00 1015.73 1015.45 1015.18 1014.95 1014.79 1014.68 1014.63 1014.64 1014.69 1014.79 1014.94 1015.14 1015.39 1015.67 1015.98 1016.28 1016.56 1016.79 1016.94 1017.02 1017.02 1016.96 1016.86 1016.74 1016.65 1016.59 1016.58
1013.56 1013.85 1013.98 1014.00 1013.99 1014.03 1014.16 1014.43 1014.83 1015.32 1015.83 1016.29 1016.64 1016.82 1016.83 1016.65 1016.35 1015.97 1015.56 1015.17 1014.84 1014.59 1014.42 1014.34 1014.33 1014.39 1014.52 1014.72 1014.98 1015.30 1015.66 1016.04 1016.41 1016.74 1016.99 1017.15 1017.21 1017.17 1017.05 1016.89 1016.72 1016.58 1016.49 1016.46
1013.46 1013.63 1013.67 1013.64 1013.63 1013.72 1013.95 1014.36 1014.92 1015.57 1016.22 1016.79 1017.19 1017.39 1017.35 1017.10 1016.69 1016.18 1015.64 1015.12 1014.68 1014.34 1014.11 1013.98 1013.96 1014.04 1014.20 1014.45 1014.77 1015.16 1015.60 1016.06 1016.49 1016.86 1017.14 1017.31 1017.34 1017.27 1017.10 1016.89 1016.67 1016.48 1016.35 1016.30
1013.37 1013.44 1013.41 1013.36 1013.38 1013.53 1013.88 1014.43 1015.14 1015.93 1016.69 1017.34 1017.79 1017.98 1017.90 1017.57 1017.05 1016.43 1015.76 1015.13 1014.58 1014.15 1013.85 1013.68 1013.64 1013.72 1013.91 1014.20 1014.58 1015.03 1015.54 1016.06 1016.54 1016.95 1017.25 1017.41 1017.43 1017.33 1017.12 1016.86 1016.60 1016.37 1016.21 1016.14
1013.38 1013.37 1013.30 1013.24 1013.30 1013.53 1013.98 1014.65 1015.47 1016.37 1017.22 1017.92 1018.39 1018.57 1018.45 1018.06 1017.46 1016.74 1015.98 1015.26 1014.62 1014.11 1013.75 1013.54 1013.47 1013.54 1013.73 1014.05 1014.46 1014.96 1015.51 1016.06 1016.58 1017.01 1017.32 1017.48 1017.49 1017.36 1017.12 1016.83 1016.54 1016.28 1016.10 1016.01
1013.53 1013.47 1013.37 1013.33 1013.41 1013.71 1014.23 1014.98 1015.88 1016.83 1017.73 1018.45 1018.93 1019.10 1018.96 1018.53 1017.90 1017.13 1016.32 1015.54 1014.85 1014.29 1013.88 1013.63 1013.53 1013.57 1013.76 1014.07 1014.49 1014.99 1015.55 1016.12 1016.64 1017.08 1017.38 1017.54 1017.54 1017.39 1017.15 1016.84 1016.54 1016.27 1016.07 1015.97
1013.84 1013.75 1013.63 1013.59 1013.71 1014.03 1014.60 1015.37 1016.29 1017.25 1018.15 1018.87 1019.34 1019.51 1019.37 1018.95 1018.33 1017.58 1016.77 1016.00 1015.30 1014.72 1014.29 1014.00 1013.87 1013.88 1014.03 1014.31 1014.71 1015.19 1015.73 1016.28 1016.78 1017.20 1017.50 1017.64 1017.63 1017.49 1017.24 1016.94 1016.63 1016.37 1016.18 1016.07
1014.27 1014.15 1014.03 1014.00 1014.12 1014.45 1015.00 1015.76 1016.64 1017.56 1018.41 1019.10 1019.56 1019.73 1019.63 1019.26 1018.71 1018.03 1017.30 1016.59 1015.94 1015.39 1014.95 1014.66 1014.50 1014.47 1014.58 1014.81 1015.16 1015.59 1016.09 1016.59 1017.05 1017.43 1017.70 1017.83 1017.81 1017.67 1017.44 1017.15 1016.87 1016.62 1016.44 1016.35
1014.74 1014.62 1014.51 1014.48 1014.59 1014.89 1015.40 1016.08 1016.88 1017.71 1018.49 1019.12 1019.55 1019.75 1019.70 1019.44 1019.00 1018.46 1017.87 1017.27 1016.72 1016.24 1015.85 1015.56 1015.39 1015.33 1015.39 1015.57 1015.85 1016.22 1016.64 1017.08 1017.48 1017.81 1018.03 1018.14 1018.11 1017.98 1017.76 1017.51 1017.25 1017.03 1016.88 1016.80
1015.19 1015.09 1014.99 1014.96 1015.06 1015.32 1015.75 1016.33 1017.01 1017.72 1018.39 1018.95 1019.36 1019.58 1019.61 1019.47 1019.20 1018.83 1018.42 1017.99 1017.58 1017.21 1016.90 1016.65 1016.49 1016.41 1016.43 1016.56 1016.77 1017.06 1017.40 1017.75 1018.08 1018.34 1018.51 1018.58 1018.54 1018.40 1018.21 1017.98 1017.76 1017.58 1017.45 1017.40
1015.54 1015.48 1015.42 1015.41 1015.50 1015.72 1016.07 1016.53 1017.08 1017.65 1018.20 1018.67 1019.04 1019.29 1019.41 1019.41 1019.31 1019.15 1018.94 1018.70 1018.46 1018.23 1018.02 1017.83 1017.70 1017.62 1017.62 1017.70 1017.85 1018.06 1018.32 1018.58 1018.82 1019.00 1019.10 1019.12 1019.05 1018.92 1018.73 1018.53 1018.35 1018.20 1018.11 1018.07
1015.80 1015.80 1015.79 1015.82 1015.92 1016.10 1016.37 1016.72 1017.13 1017.56 1017.99 1018.37 1018.71 1018.97 1019.17 1019.30 1019.38 1019.42 1019.41 1019.38 1019.31 1019.22 1019.12 1019.02 1018.93 1018.87 1018.86 1018.90 1019.00 1019.15 1019.32 1019.49 1019.63 1019.73 1019.76 1019.72 1019.61 1019.46 1019.28 1019.10 1018.95 1018.84 1018.78 1018.76
1015.97 1016.04 1016.11 1016.20 1016.32 1016.48 1016.69 1016.95 1017.24 1017.54 1017.85 1018.15 1018.43 1018.71 1018.97 1019.22 1019.45 1019.66 1019.84 1019.98 1020.08 1020.13 1020.15 1020.12 1020.09 1020.06 1020.05 1020.07 1020.13 1020.21 1020.31 1020.39 1020.45 1020.45 1020.40 1020.30 1020.15 1019.97 1019.79 1019.63 1019.51 1019.43 1019.40 1019.40
1016.10 1016.26 1016.41 1016.56 1016.71 1016.88 1017.06 1017.24 1017.43 1017.62 1017.82 1018.04 1018.29 1018.56 1018.86 1019.19 1019.54 1019.89 1020.22 1020.51 1020.74 1020.91 1021.02 1021.08 1021.09 1021.10 1021.09 1021.11 1021.13 1021.17 1021.20 1021.20 1021.17 1021.10 1020.97 1020.80 1020.60 1020.40 1020.22 1020.08 1019.98 1019.94 1019.94 1019.97
1016.25 1016.48 1016.70 1016.92 1017.12 1017.30 1017.45 1017.59 1017.70 1017.81 1017.93 1018.08 1018.28 1018.54 1018.87 1019.25 1019.68 1020.12 1020.55 1020.94 1021.27 1021.53 1021.71 1021.82 1021.88 1021.91 1021.92 1021.93 1021.93 1021.93 1021.90 1021.85 1021.75 1021.60 1021.41 1021.18 1020.95 1020.73 1020.55 1020.42 1020.36 1020.35 1020.38 1020.44
1016.47 1016.75 1017.03 1017.28 1017.51 1017.71 1017.85 1017.95 1018.02 1018.07 1018.13 1018.23 1018.39 1018.63 1018.96 1019.37 1019.84 1020.33 1020.82 1021.27 1021.66 1021.97 1022.19 1022.34 1022.43 1022.47 1022.49 1022.49 1022.48 1022.44 1022.38 1022.28 1022.13 1021.93 1021.70 1021.44 1021.18 1020.96 1020.79 1020.68 1020.65 1020.67 1020.74 1020.83
1016.78 1017.07 1017.36 1017.63 1017.87 1018.07 1018.20 1018.28 1018.32 1018.33 1018.35 1018.42 1018.55 1018.78 1019.11 1019.52 1020.00 1020.52 1021.03 1021.50 1021.91 1022.23 1022.47 1022.63 1022.72 1022.77 1022.79 1022.78 1022.76 1022.71 1022.62 1022.50 1022.32 1022.11 1021.85 1021.59 1021.33 1021.12 1020.97 1020.90 1020.90 1020.96 1021.06 1021.17
1017.15 1017.41 1017.67 1017.93 1018.15 1018.33 1018.45 1018.51 1018.53 1018.52 1018.53 1018.59 1018.71 1018.94 1019.26 1019.67 1020.15 1020.66 1021.16 1021.63 1022.03 1022.34 1022.57 1022.72 1022.80 1022.84 1022.85 1022.84 1022.81 1022.76 1022.67 1022.55 1022.37 1022.16 1021.92 1021.68 1021.45 1021.27 1021.15 1021.11 1021.14 1021.24 1021.37 1021.50
1017.51 1017.71 1017.92 1018.12 1018.30 1018.44 1018.54 1018.59 1018.61 1018.61 1018.62 1018.69 1018.83 1019.05 1019.38 1019.79 1020.26 1020.75 1021.24 1021.68 1022.04 1022.33 1022.53 1022.66 1022.72 1022.75 1022.75 1022.73 1022.71 1022.66 1022.59 1022.48 1022.34 1022.16 1021.96 1021.76 1021.58 1021.44 1021.37 1021.36 1021.43 1021.54 1021.69 1021.83
1017.79 1017.90 1018.03 1018.16 1018.29 1018.40 1018.47 1018.51 1018.54 1018.56 1018.60 1018.70 1018.87 1019.12 1019.45 1019.87 1020.33 1020.80 1021.26 1021.66 1022.00 1022.25 1022.41 1022.51 1022.55 1022.56 1022.55 1022.53 1022.51 1022.48 1022.43 1022.37 1022.27 1022.15 1022.01 1021.87 1021.75 1021.66 1021.63 1021.67 1021.75 1021.88 1022.03 1022.16
1017.90 1017.93 1017.98 1018.04 1018.11 1018.18 1018.24 1018.29 1018.34 1018.40 1018.49 1018.64 1018.85 1019.13 1019.49 1019.91 1020.37 1020.82 1021.25 1021.62 1021.91 1022.13 1022.26 1022.32 1022.33 1022.32 1022.30 1022.28 1022.27 1022.27 1022.26 1022.25 1022.21 1022.16 1022.09 1022.02 1021.97 1021.94 1021.95 1022.00 1022.10 1022.22 1022.36 1022.47
1017.79 1017.75 1017.73 1017.74 1017.78 1017.83 1017.90 1017.97 1018.07 1018.18 1018.33 1018.53 1018.80 1019.12 1019.51 1019.94 1020.39 1020.83 1021.23 1021.56 1021.82 1022.00 1022.09 1022.12 1022.11 1022.08 1022.05 1022.04 1022.04 1022.07 1022.10 1022.14 1022.17 1022.19 1022.20 1022.20 1022.20 1022.22 1022.26 1022.33 1022.42 1022.53 1022.64 1022.73
1017.43 1017.36 1017.31 1017.29 1017.32 1017.39 1017.48 1017.61 1017.76 1017.94 1018.16 1018.43 1018.75 1019.12 1019.53 1019.97 1020.41 1020.83 1021.20 1021.51 1021.73 1021.87 1021.94 1021.94 1021.91 1021.87 1021.83 1021.82 1021.84 1021.89 1021.96 1022.05 1022.14 1022.22 1022.30 1022.36 1022.41 1022.47 1022.53 1022.60 1022.68 1022.76 1022.84 1022.89
1016.86 1016.78 1016.73 1016.73 1016.79 1016.90 1017.06 1017.25 1017.48 1017.74 1018.03 1018.36 1018.72 1019.12 1019.55 1019.99 1020.42 1020.82 1021.17 1021.44 1021.64 1021.75 1021.79 1021.77 1021.72 1021.67 1021.63 1021.61 1021.64 1021.71 1021.82 1021.95 1022.09 1022.22 1022.35 1022.46 1022.56 1022.63 1022.70 1022.76 1022.82 1022.87 1022.91 1022.93
1016.12 1016.07 1016.06 1016.12 1016.24 1016.42 1016.66 1016.94 1017.25 1017.58 1017.94 1018.32 1018.72 1019.14 1019.57 1020.00 1020.42 1020.79 1021.11 1021.35 1021.52 1021.61 1021.63 1021.60 1021.54 1021.48 1021.43 1021.41 1021.45 1021.53 1021.65 1021.81 1021.98 1022.16 1022.32 1022.47 1022.58 1022.68 1022.74 1022.79 1022.82 1022.84 1022.84 1022.83
Thickness
5714 5703 5697 5703 5707 5709 5705 5699 5696 5701 5711 5707 5701 5700 5704 5709 5710 5709 5709 5709 5708 5707 5706 5706 5704 5704 5703 5700 5698 5696 5694 5692 5691 5689 5686 5684 5681 5680 5679 5678 5677 5676 5675 5674
5699 5698 5709 5713 5711 5707 5702 5696 5694 5699 5708 5703 5695 5694 5700 5704 5705 5706 5705 5703 5702 5700 5698 5698 5697 5696 5695 5693 5690 5687 5687 5686 5684 5682 5680 5678 5675 5673 5671 5670 5668 5667 5667 5666
5698 5705 5716 5712 5707 5703 5700 5696 5695 5694 5697 5697 5692 5686 5691 5697 5701 5702 5701 5699 5698 5696 5694 5693 5691 5689 5687 5686 5684 5683 5680 5679 5678 5675 5674 5672 5669 5666 5663 5662 5660 5659 5658 5658
5701 5710 5713 5709 5706 5704 5695 5706 5702 5696 5685 5675 5684 5669 5683 5688 5691 5695 5695 5694 5693 5692 5690 5689 5685 5682 5680 5679 5679 5676 5675 5673 5671 5668 5666 5664 5660 5657 5654 5652 5651 5650 5650 5649
5701 5710 5709 5705 5708 5708 5701 5706 5699 5692 5679 5671 5672 5666 5672 5681 5683 5689 5691 5692 5691 5689 5686 5683 5680 5677 5675 5673 5672 5670 5668 5666 5663 5661 5659 5656 5653 5649 5646 5645 5644 5642 5642 5641
5705 5715 5714 5712 5715 5712 5705 5696 5686 5674 5667 5658 5665 5661 5665 5672 5681 5686 5688 5689 5687 5684 5682 5678 5675 5672 5668 5666 5665 5663 5661 5658 5656 5654 5651 5649 5646 5642 5639 5637 5636 5634 5633 5633
5696 5705 5713 5716 5705 5705 5698 5678 5659 5657 5646 5651 5664 5659 5664 5680 5685 5685 5684 5684 5683 5680 5676 5672 5668 5664 5661 5659 5657 5655 5653 5650 5647 5645 5643 5642 5639 5635 5632 5630 5628 5626 5625 5624
5679 5679 5701 5709 5704 5695 5690 5681 5658 5649 5644 5647 5658 5655 5668 5682 5684 5684 5683 5680 5678 5674 5671 5666 5662 5659 5656 5653 5651 5648 5645 5642 5640 5638 5635 5633 5631 5628 5624 5622 5620 5618 5617 5616
5675 5678 5701 5707 5707 5699 5684 5674 5674 5656 5649 5643 5647 5657 5669 5678 5677 5677 5675 5672 5669 5667 5663 5660 5656 5652 5649 5646 5643 5641 5638 5635 5633 5630 5627 5625 5623 5620 5616 5614 5612 5610 5609 5609
5687 5679 5692 5700 5702 5694 5689 5675 5660 5650 5640 5637 5647 5652 5655 5667 5667 5668 5666 5664 5663 5661 5657 5653 5649 5646 5642 5639 5636 5633 5630 5627 5624 5621 5618 5616 5613 5611 5608 5606 5604 5602 5602 5601
5689 5675 5678 5685 5683 5681 5679 5671 5659 5647 5646 5637 5633 5644 5666 5666 5666 5663 5661 5659 5657 5654 5650 5645 5641 5638 5635 5632 5628 5624 5621 5618 5615 5612 5609 5606 5604 5602 5599 5597 5595 5594 5593 5593
5681 5667 5661 5672 5683 5687 5682 5674 5661 5651 5645 5639 5635 5642 5666 5665 5663 5660 5657 5654 5650 5647 5642 5638 5634 5630 5626 5622 5620 5616 5613 5609 5606 5603 5600 5597 5595 5592 5590 5588 5587 5586 5585 5584
5679 5663 5651 5656 5665 5675 5674 5670 5663 5653 5641 5633 5633 5645 5660 5659 5657 5655 5651 5648 5644 5639 5635 5630 5626 5622 5618 5614 5611 5608 5605 5602 5598 5595 5592 5589 5586 5583 5581 5579 5578 5577 5576 5575
5681 5660 5653 5650 5655 5664 5666 5667 5662 5654 5639 5636 5641 5648 5653 5652 5650 5647 5644 5640 5636 5631 5627 5622 5618 5614 5610 5607 5603 5600 5597 5594 5591 5587 5583 5580 5577 5575 5572 5571 5570 5569 5568 5567
5676 5659 5660 5661 5666 5667 5665 5665 5663 5657 5651 5644 5648 5647 5650 5649 5646 5642 5638 5633 5629 5624 5619 5615 5610 5606 5602 5599 5596 5593 5589 5586 5583 5579 5576 5572 5570 5567 5565 5563 5561 5560 5559 5559
5667 5658 5658 5657 5663 5664 5660 5662 5662 5658 5655 5650 5649 5646 5649 5646 5642 5636 5631 5627 5622 5617 5613 5608 5603 5599 5595 5591 5588 5585 5582 5578 5575 5572 5569 5566 5563 5560 5557 5555 5553 5553 5552 5550
5657 5654 5647 5644 5655 5658 5648 5656 5657 5655 5654 5651 5645 5646 5644 5640 5636 5632 5627 5623 5618 5612 5607 5602 5598 5593 5588 5584 5581 5578 5575 5571 5568 5565 5562 5559 5556 5553 5550 5548 5546 5545 5544 5543
5656 5648 5638 5638 5645 5637 5649 5662 5661 5654 5651 5652 5648 5644 5642 5637 5632 5627 5624 5619 5613 5608 5602 5597 5592 5587 5582 5579 5575 5572 5569 5565 5562 5559 5556 5553 5550 5547 5544 5542 5540 5538 5537 5535
5661 5651 5638 5631 5633 5639 5652 5659 5657 5651 5647 5649 5645 5641 5636 5631 5626 5620 5618 5614 5609 5603 5597 5592 5587 5582 5577 5573 5570 5566 5563 5560 5557 5554 5551 5548 5545 5542 5538 5536 5534 5533 5531 5530
5656 5652 5640 5632 5633 5632 5649 5662 5663 5654 5642 5648 5644 5638 5632 5628 5619 5616 5614 5609 5604 5598 5593 5587 5582 5577 5573 5569 5565 5562 5559 5556 5553 5550 5547 5544 5541 5537 5534 5532 5530 5528 5526 5525
5649 5644 5638 5633 5634 5641 5658 5663 5661 5641 5642 5649 5643 5637 5631 5626 5621 5616 5611 5605 5600 5594 5589 5584 5579 5574 5570 5566 5562 5559 5555 5552 5549 5546 5544 5540 5537 5534 5531 5529 5526 5524 5522 5521
5646 5641 5637 5632 5633 5640 5661 5659 5652 5649 5650 5648 5642 5636 5630 5623 5617 5612 5607 5601 5595 5590 5585 5580 5575 5571 5567 5563 5559 5556 5552 5549 5546 5543 5540 5537 5534 5532 5529 5526 5524 5522 5519 5517
5650 5649 5645 5643 5644 5653 5657 5659 5657 5653 5648 5645 5639 5633 5628 5620 5614 5609 5603 5597 5592 5587 5582 5577 5573 5568 5564 5561 5558 5554 5551 5548 5545 5541 5537 5534 5532 5530 5527 5524 5522 5519 5517 5515
5654 5652 5648 5647 5651 5655 5656 5656 5655 5653 5649 5644 5639 5632 5626 5619 5613 5607 5600 5594 5589 5584 5580 5575 5571 5567 5563 5560 5557 5553 5550 5547 5543 5539 5535 5532 5529 5527 5525 5522 5520 5518 5516 5514
5658 5653 5648 5647 5652 5653 5654 5654 5653 5650 5646 5641 5635 5630 5625 5619 5611 5605 5599 5593 5588 5583 5578 5574 5570 5566 5563 5559 5556 5553 5550 5546 5542 5538 5534 5531 5528 5526 5523 5521 5519 5518 5516 5515
5658 5656 5652 5651 5656 5652 5652 5654 5652 5647 5643 5639 5634 5627 5622 5618 5612 5605 5599 5593 5588 5582 5578 5573 5570 5566 5563 5559 5556 5553 5550 5546 5541 5537 5534 5530 5527 5525 5523 5520 5519 5519 5518 5518